101 visiteurs
Prévisions de votre ville :
Vigilance : 4 départements Mise à jour le 17/10/2018 à 18:01 - Voir la carte

Paris Roissy CDG (95380) le 18/10/2018 à 02:00 Choisir station

13.5°C 85 % N Rafales 35 km/h
Vit. moyenne 17 kmh/h

Relevés météo quotidiens pour la station de :

UTC
S: Synop
M: Metar
Loc T°C
(°C)
Td
(°C)
HR
(%)
Vis
(km)
Néb
(octa)
Vent
(km/h)
Pression
(mb)
Précipitations
(mm)
Temps
              MOY
10 min
DIR RAF 1h MESURE VAR SUR 3h    
S 00 h 02h 14.1 12.0 87 55 /8 15 28 1004.4 -0.1/3h 0.0/3h
S 01 h 03h 13.6 11.1 85 60 /8 13 22 1004.1 -0.3/3h 0.0/1h
S 02 h 04h 13.3 11.4 88 60 /8 7 13 1003.9 -0.4/3h 0.0/1h
S 03 h 05h 13.7 11.7 88 55 8/8 7 13 1003.6 -0.8/3h 0.0/3h
S 04 h 06h 13.7 11.9 89 50 /8 15 24 1003.4 -0.7/3h 0.0/1h
S 05 h 07h 13.9 12.3 90 40 8/8 9 13 1003.0 -0.9/3h 0.0/1h
S 06 h 08h 14.0 12.9 93 35 8/8 13 26 1003.2 -0.4/3h 0.0/3h - 1.4/24h
S 07 h 09h 15.4 13.8 90 35 6/8 15 22 1003.4 0.0/3h 0.0/1h
S 08 h 10h 16.3 14.1 87 35 /8 11 19 1003.8 +0.9/3h 0.0/1h
S 09 h 11h 17.2 14.5 84 30 8/8 9 17 1003.2 +0.1/3h 0.0/3h
S 10 h 12h 18.8 14.9 78 22 /8 13 20 1004.7 +1.4/3h 0.0/1h
S 11 h 13h 19.8 14.2 70 35 7/8 26 43 1004.7 +0.9/3h 0.0/1h
S 12 h 14h 19.6 13.5 68 20 7/8 24 50 1005.2 +2.0/3h 0.0/6h - 0.0/3h
S 13 h 15h 18.4 12.8 70 45 7/8 22 50 1005.2 +0.5/3h 0.0/1h
S 14 h 16h 18.8 13.4 71 35 7/8 13 20 1005.9 +1.2/3h 0.0/1h
S 15 h 17h 16.0 14.4 90 4.9 8/8 9 24 1007.4 +2.1/3h 0.8/3h
S 16 h 18h 15.2 13.7 91 15 8/8 15 28 1007.8 +2.5/3h 3.0/1h
S 17 h 19h 15.0 12.9 87 40 /8 13 22 1007.8 +1.8/3h 0.0/1h
S 18 h 20h 13.3 12.4 94 50 /8 13 20 1008.8 +1.4/3h 4.0/12h - 3.0/3h
S 19 h 21h 13.0 12.4 96 35 /8 13 22 1009.9 +2.1/3h 0.0/1h
S 20 h 22h 13.6 13.0 96 25 /8 17 30 1010.4 +2.6/3h 0.0/1h
S 21 h 23h 13.4 12.9 97 12 7/8 6 13 1011.0 +2.2/3h 0.0/3h
S 22 h 00h 13.9 13.4 97 7 7/8 7 15 1011.5 +1.6/3h 0.2/1h
S 23 h 01h 13.6 13.1 97 10 6/8 15 26 1012.1 +1.7/3h 0.0/1h
evolution des temperatures
cumul des precipitations
vent moyen et rafales
pression atmospherique

Un tiret (-) signifie que les données ne sont pas disponibles.

Passez la souris sur les pictos temps pour avoir plus de précisions. Passez les flèches sur l'icône de la direction du vent pour voir la direction précise en degrés.

Les données de l'heure en cours sont disponibles à partir de H+15 minutes.


S signifie station Synop, plus complète qu'une station Metar (M). Il y a +1h de différence entre l'heure UTC et l'heure légale en hiver et +2h en été.

Td est la mesure du point de rosée.

HR est l'humidité relative/p>

Vis est la visibilité

Néb est la nébulosité du ciel (couverture nuageuse) exprimée en octas (de 0/8 à 8/8).

Vent moy 10 min donne le vent moyen sur les 10 minutes qui précèdent le relevé.

Vent raf 1h donne la rafale maximale mesurée dans l'heure qui précède le relevé.


Les données les plus anciennes remontent à avril 2014.

Les données présentées sur cette page proviennent des stations météo officielles. Les relevés sont effectués aux normes en vigueur (anémomètre à 10m de haut, thermomètre sous abri normalisé à 2m du sol...)

Météo 60 décline toute responsabilité en cas d'absence de données, d'erreurs, de mauvaise utilisation ou interprétation et n'est pas habilité à fournir des certificats intempéries.